Simultaneous Nadir Overpasses (SNOs) Predictions

Prediction of SNOs near US between AQUA and NPP Satellite Orbit:

Table of predicted SNOs near US for the next 10.0 days since TLE Epoch: 12/7/2013
Index Date (AQUA) Time (AQUA) AQUA Lat,Lon Date (NPP) Time (NPP) NPP Lat,Lon Distance(km) Time Diff (sec)
1 12/07/2013 08:35:52 20.00,-102.06 12/07/2013 08:27:49 19.99,-102.05 1.87 483
2 12/07/2013 10:11:58 30.06,-124.32 12/07/2013 10:06:25 30.18,-124.78 46.56 333
3 12/10/2013 07:19:32 49.92, -76.14 12/10/2013 07:22:08 50.31, -78.16 150.17 156
4 12/10/2013 08:58:25 49.92,-100.86 12/10/2013 09:03:36 50.43,-103.48 194.70 311
5 12/12/2013 18:17:40 49.99, -80.36 12/12/2013 18:12:29 49.71, -81.82 109.46 311
6 12/12/2013 19:56:33 49.99,-105.08 12/12/2013 19:53:58 49.65,-107.17 154.71 155
7 12/12/2013 21:31:33 36.10,-124.99 12/12/2013 21:31:26 35.63,-127.44 227.42 7
8 12/15/2013 09:23:19 26.75,-112.76 12/15/2013 09:16:51 26.82,-113.03 26.89 388




NCC Satellite Simultaneous Nadir Overpasses (SNOs) Prediction Service
